Data supplied by UK-AIR on 13/3/2019
All Data GMT hour ending 
Status: R =Ratified P=Provisional,P*=As supplied
,,Belfast Stockman's Lane,,,,,,,,,,,,,,,,,,,,,,,
Date,time,"PM<sub>10</sub> particulate matter (Hourly measured)",status,unit,"Nitric oxide",status,unit,"Nitrogen dioxide",status,unit,"Nitrogen oxides as nitrogen dioxide",status,unit
 
01-01-2018,01:00,8.333,R,ugm-3 (Ref.eq),2.54940,R,ugm-3,5.23865,R,ugm-3,9.14767,R,ugm-3
01-01-2018,02:00,9.166,R,ugm-3 (Ref.eq),3.22282,R,ugm-3,6.45551,R,ugm-3,11.39710,R,ugm-3
01-01-2018,03:00,5.833,R,ugm-3 (Ref.eq),2.52535,R,ugm-3,6.92511,R,ugm-3,10.79725,R,ugm-3
01-01-2018,04:00,6.666,R,ugm-3 (Ref.eq),2.56142,R,ugm-3,6.47614,R,ugm-3,10.40360,R,ugm-3
01-01-2018,05:00,5.000,R,ugm-3 (Ref.eq),1.94813,R,ugm-3,2.58025,R,ugm-3,5.56733,R,ugm-3
01-01-2018,06:00,2.500,R,ugm-3 (Ref.eq),1.47913,R,ugm-3,3.74925,R,ugm-3,6.01722,R,ugm-3
01-01-2018,07:00,2.500,R,ugm-3 (Ref.eq),14.14194,R,ugm-3,25.66644,R,ugm-3,47.35045,R,ugm-3
01-01-2018,08:00,5.833,R,ugm-3 (Ref.eq),10.85899,R,ugm-3,20.80275,R,ugm-3,37.45297,R,ugm-3
01-01-2018,09:00,7.500,R,ugm-3 (Ref.eq),8.94694,R,ugm-3,17.99847,R,ugm-3,31.71693,R,ugm-3
01-01-2018,10:00,7.500,R,ugm-3 (Ref.eq),6.02476,R,ugm-3,13.81880,R,ugm-3,23.05663,R,ugm-3
01-01-2018,11:00,7.500,R,ugm-3 (Ref.eq),6.71021,R,ugm-3,13.21768,R,ugm-3,23.50652,R,ugm-3
01-01-2018,12:00,5.833,R,ugm-3 (Ref.eq),11.29191,R,ugm-3,15.75257,R,ugm-3,33.06658,R,ugm-3
01-01-2018,13:00,3.333,R,ugm-3 (Ref.eq),18.03819,R,ugm-3,23.06641,R,ugm-3,50.72459,R,ugm-3
01-01-2018,14:00,5.000,R,ugm-3 (Ref.eq),19.08441,R,ugm-3,28.88535,R,ugm-3,58.14770,R,ugm-3
01-01-2018,15:00,10.833,R,ugm-3 (Ref.eq),28.10350,R,ugm-3,36.59453,R,ugm-3,79.68597,R,ugm-3
01-01-2018,16:00,11.666,R,ugm-3 (Ref.eq),26.37184,R,ugm-3,40.43067,R,ugm-3,80.86692,R,ugm-3
01-01-2018,17:00,8.333,R,ugm-3 (Ref.eq),33.22635,R,ugm-3,52.13365,R,ugm-3,103.08002,R,ugm-3
01-01-2018,18:00,14.166,R,ugm-3 (Ref.eq),31.78330,R,ugm-3,48.94768,R,ugm-3,97.68139,R,ugm-3
01-01-2018,19:00,6.666,R,ugm-3 (Ref.eq),19.55340,R,ugm-3,34.52087,R,ugm-3,64.50234,R,ugm-3
01-01-2018,20:00,7.500,R,ugm-3 (Ref.eq),18.75972,R,ugm-3,35.79407,R,ugm-3,64.55857,R,ugm-3
01-01-2018,21:00,9.166,R,ugm-3 (Ref.eq),15.29639,R,ugm-3,31.26319,R,ugm-3,54.71733,R,ugm-3
01-01-2018,22:00,13.333,R,ugm-3 (Ref.eq),7.75642,R,ugm-3,22.46699,R,ugm-3,34.36001,R,ugm-3
01-01-2018,23:00,14.166,R,ugm-3 (Ref.eq),5.66399,R,ugm-3,15.72162,R,ugm-3,24.40629,R,ugm-3
01-01-2018,24:00,15.833,R,ugm-3 (Ref.eq),10.64253,R,ugm-3,20.00993,R,ugm-3,36.32826,R,ugm-3
02-01-2018,01:00,8.333,R,ugm-3 (Ref.eq),25.76760,R,ugm-3,31.33351,R,ugm-3,70.84328,R,ugm-3
02-01-2018,02:00,13.333,R,ugm-3 (Ref.eq),9.42805,R,ugm-3,16.50027,R,ugm-3,30.95641,R,ugm-3
02-01-2018,03:00,14.166,R,ugm-3 (Ref.eq),3.79290,R,ugm-3,10.67563,R,ugm-3,16.49133,R,ugm-3
02-01-2018,04:00,13.333,R,ugm-3 (Ref.eq),24.49126,R,ugm-3,29.31311,R,ugm-3,66.86585,R,ugm-3
02-01-2018,05:00,10.000,R,ugm-3 (Ref.eq),23.01023,R,ugm-3,32.70968,R,ugm-3,67.99154,R,ugm-3
02-01-2018,06:00,14.166,R,ugm-3 (Ref.eq),36.55628,R,ugm-3,49.59362,R,ugm-3,105.64580,R,ugm-3
02-01-2018,07:00,13.333,R,ugm-3 (Ref.eq),151.02945,R,ugm-3,86.03754,R,ugm-3,317.61280,R,ugm-3
02-01-2018,08:00,24.999,R,ugm-3 (Ref.eq),191.73985,R,ugm-3,110.91288,R,ugm-3,404.90989,R,ugm-3
02-01-2018,09:00,14.166,R,ugm-3 (Ref.eq),101.83019,R,ugm-3,81.21382,R,ugm-3,237.35126,R,ugm-3
02-01-2018,10:00,8.333,R,ugm-3 (Ref.eq),51.90847,R,ugm-3,65.84698,R,ugm-3,145.43886,R,ugm-3
02-01-2018,11:00,8.333,R,ugm-3 (Ref.eq),42.08307,R,ugm-3,48.66143,R,ugm-3,113.18790,R,ugm-3
02-01-2018,12:00,9.166,R,ugm-3 (Ref.eq),55.41238,R,ugm-3,60.81210,R,ugm-3,145.77656,R,ugm-3
02-01-2018,13:00,12.500,R,ugm-3 (Ref.eq),55.12340,R,ugm-3,70.76726,R,ugm-3,155.28863,R,ugm-3
02-01-2018,14:00,23.332,R,ugm-3 (Ref.eq),98.79587,R,ugm-3,76.63573,R,ugm-3,228.12062,R,ugm-3
02-01-2018,15:00,29.166,R,ugm-3 (Ref.eq),122.05896,R,ugm-3,103.10413,R,ugm-3,290.25859,R,ugm-3
02-01-2018,16:00,25.832,R,ugm-3 (Ref.eq),106.92350,R,ugm-3,107.17481,R,ugm-3,271.12190,R,ugm-3
02-01-2018,17:00,30.832,R,ugm-3 (Ref.eq),65.16554,R,ugm-3,71.57943,R,ugm-3,171.49853,R,ugm-3
02-01-2018,18:00,22.499,R,ugm-3 (Ref.eq),96.52013,R,ugm-3,83.83992,R,ugm-3,231.83539,R,ugm-3
02-01-2018,19:00,15.833,R,ugm-3 (Ref.eq),43.34737,R,ugm-3,58.93658,R,ugm-3,125.40162,R,ugm-3
02-01-2018,20:00,5.000,R,ugm-3 (Ref.eq),17.12221,R,ugm-3,24.00827,R,ugm-3,50.26196,R,ugm-3
02-01-2018,21:00,5.000,R,ugm-3 (Ref.eq),3.43167,R,ugm-3,8.02130,R,ugm-3,13.28312,R,ugm-3
02-01-2018,22:00,2.500,R,ugm-3 (Ref.eq),5.05719,R,ugm-3,12.56441,R,ugm-3,20.31866,R,ugm-3
02-01-2018,23:00,2.500,R,ugm-3 (Ref.eq),4.33474,R,ugm-3,9.11313,R,ugm-3,15.75963,R,ugm-3
02-01-2018,24:00,13.333,R,ugm-3 (Ref.eq),1.69777,R,ugm-3,5.72688,R,ugm-3,8.33009,R,ugm-3
03-01-2018,01:00,4.167,R,ugm-3 (Ref.eq),2.17015,R,ugm-3,2.83156,R,ugm-3,6.15908,R,ugm-3
03-01-2018,02:00,8.333,R,ugm-3 (Ref.eq),1.12125,R,ugm-3,3.97042,R,ugm-3,5.68964,R,ugm-3
03-01-2018,03:00,10.000,R,ugm-3 (Ref.eq),1.44677,R,ugm-3,4.82329,R,ugm-3,7.04164,R,ugm-3
03-01-2018,04:00,5.833,R,ugm-3 (Ref.eq),2.38717,R,ugm-3,2.42370,R,ugm-3,6.08397,R,ugm-3
03-01-2018,05:00,4.167,R,ugm-3 (Ref.eq),1.41060,R,ugm-3,12.93438,R,ugm-3,15.09727,R,ugm-3
03-01-2018,06:00,8.333,R,ugm-3 (Ref.eq),2.67652,R,ugm-3,6.20501,R,ugm-3,10.30895,R,ugm-3
03-01-2018,07:00,10.000,R,ugm-3 (Ref.eq),9.44017,R,ugm-3,20.73346,R,ugm-3,35.20818,R,ugm-3
03-01-2018,08:00,8.333,R,ugm-3 (Ref.eq),35.01181,R,ugm-3,41.91322,R,ugm-3,95.59725,R,ugm-3
03-01-2018,09:00,13.333,R,ugm-3 (Ref.eq),38.15853,R,ugm-3,52.52358,R,ugm-3,111.03252,R,ugm-3
03-01-2018,10:00,10.000,R,ugm-3 (Ref.eq),49.29865,R,ugm-3,66.93250,R,ugm-3,142.52271,R,ugm-3
03-01-2018,11:00,8.333,R,ugm-3 (Ref.eq),28.24816,R,ugm-3,45.18603,R,ugm-3,88.49928,R,ugm-3
03-01-2018,12:00,17.499,R,ugm-3 (Ref.eq),31.10553,R,ugm-3,49.04821,R,ugm-3,96.74269,R,ugm-3
03-01-2018,13:00,17.499,R,ugm-3 (Ref.eq),30.49066,R,ugm-3,47.26824,R,ugm-3,94.01992,R,ugm-3
03-01-2018,14:00,15.833,R,ugm-3 (Ref.eq),52.44538,R,ugm-3,59.34727,R,ugm-3,139.76239,R,ugm-3
03-01-2018,15:00,19.999,R,ugm-3 (Ref.eq),45.21153,R,ugm-3,64.91837,R,ugm-3,134.24175,R,ugm-3
03-01-2018,16:00,16.666,R,ugm-3 (Ref.eq),45.89875,R,ugm-3,53.16137,R,ugm-3,123.53846,R,ugm-3
03-01-2018,17:00,11.666,R,ugm-3 (Ref.eq),45.97108,R,ugm-3,42.85416,R,ugm-3,113.34217,R,ugm-3
03-01-2018,18:00,14.999,R,ugm-3 (Ref.eq),42.86053,R,ugm-3,48.91927,R,ugm-3,114.63783,R,ugm-3
03-01-2018,19:00,18.333,R,ugm-3 (Ref.eq),28.39284,R,ugm-3,39.72522,R,ugm-3,83.26030,R,ugm-3
03-01-2018,20:00,12.500,R,ugm-3 (Ref.eq),23.14830,R,ugm-3,32.89480,R,ugm-3,68.38837,R,ugm-3
03-01-2018,21:00,7.500,R,ugm-3 (Ref.eq),13.20177,R,ugm-3,25.38737,R,ugm-3,45.62980,R,ugm-3
03-01-2018,22:00,9.166,R,ugm-3 (Ref.eq),7.70404,R,ugm-3,18.21283,R,ugm-3,30.02554,R,ugm-3
03-01-2018,23:00,13.333,R,ugm-3 (Ref.eq),5.78708,R,ugm-3,12.58951,R,ugm-3,21.46291,R,ugm-3
03-01-2018,24:00,14.166,R,ugm-3 (Ref.eq),2.67652,R,ugm-3,7.27534,R,ugm-3,11.37928,R,ugm-3
04-01-2018,01:00,14.166,R,ugm-3 (Ref.eq),5.64177,R,ugm-3,14.02543,R,ugm-3,22.67603,R,ugm-3
04-01-2018,02:00,13.333,R,ugm-3 (Ref.eq),5.20779,R,ugm-3,12.06285,R,ugm-3,20.04801,R,ugm-3
04-01-2018,03:00,18.333,R,ugm-3 (Ref.eq),12.36851,R,ugm-3,15.21821,R,ugm-3,34.18299,R,ugm-3
04-01-2018,04:00,16.666,R,ugm-3 (Ref.eq),9.76461,R,ugm-3,16.90190,R,ugm-3,31.87409,R,ugm-3
04-01-2018,05:00,20.833,R,ugm-3 (Ref.eq),15.26172,R,ugm-3,23.56543,R,ugm-3,46.96641,R,ugm-3
04-01-2018,06:00,19.166,R,ugm-3 (Ref.eq),14.82774,R,ugm-3,20.28884,R,ugm-3,43.02439,R,ugm-3
04-01-2018,07:00,8.333,R,ugm-3 (Ref.eq),35.22492,R,ugm-3,46.67979,R,ugm-3,100.69058,R,ugm-3
04-01-2018,08:00,5.833,R,ugm-3 (Ref.eq),59.05780,R,ugm-3,78.50253,R,ugm-3,169.05656,R,ugm-3
04-01-2018,09:00,4.167,R,ugm-3 (Ref.eq),29.04067,R,ugm-3,79.64538,R,ugm-3,124.17379,R,ugm-3
04-01-2018,10:00,5.833,R,ugm-3 (Ref.eq),57.43037,R,ugm-3,92.03556,R,ugm-3,180.09423,R,ugm-3
04-01-2018,11:00,7.500,R,ugm-3 (Ref.eq),40.03490,R,ugm-3,75.12071,R,ugm-3,136.50669,R,ugm-3
04-01-2018,12:00,7.500,R,ugm-3 (Ref.eq),44.19390,R,ugm-3,66.66002,R,ugm-3,134.42305,R,ugm-3
04-01-2018,13:00,7.500,R,ugm-3 (Ref.eq),58.91314,R,ugm-3,85.59472,R,ugm-3,175.92694,R,ugm-3
04-01-2018,14:00,8.333,R,ugm-3 (Ref.eq),138.33196,R,ugm-3,115.81412,R,ugm-3,327.92017,R,ugm-3
04-01-2018,15:00,13.333,R,ugm-3 (Ref.eq),125.13165,R,ugm-3,104.68705,R,ugm-3,296.55291,R,ugm-3
04-01-2018,16:00,10.000,R,ugm-3 (Ref.eq),95.83783,R,ugm-3,122.34734,R,ugm-3,269.29662,R,ugm-3
04-01-2018,17:00,9.166,R,ugm-3 (Ref.eq),110.48474,R,ugm-3,111.43355,R,ugm-3,280.84112,R,ugm-3
04-01-2018,18:00,17.499,R,ugm-3 (Ref.eq),157.10171,R,ugm-3,120.03462,R,ugm-3,360.92055,R,ugm-3
04-01-2018,19:00,21.666,R,ugm-3 (Ref.eq),85.31375,R,ugm-3,94.67124,R,ugm-3,225.48383,R,ugm-3
04-01-2018,20:00,19.999,R,ugm-3 (Ref.eq),53.52452,R,ugm-3,74.09072,R,ugm-3,156.16050,R,ugm-3
04-01-2018,21:00,20.833,R,ugm-3 (Ref.eq),72.11344,R,ugm-3,74.08331,R,ugm-3,184.65571,R,ugm-3
04-01-2018,22:00,20.833,R,ugm-3 (Ref.eq),54.06700,R,ugm-3,64.47384,R,ugm-3,147.37542,R,ugm-3
04-01-2018,23:00,17.499,R,ugm-3 (Ref.eq),25.64114,R,ugm-3,39.13043,R,ugm-3,78.44630,R,ugm-3
04-01-2018,24:00,17.499,R,ugm-3 (Ref.eq),37.79265,R,ugm-3,42.01057,R,ugm-3,99.95849,R,ugm-3
05-01-2018,01:00,14.166,R,ugm-3 (Ref.eq),30.71292,R,ugm-3,36.90144,R,ugm-3,83.99393,R,ugm-3
05-01-2018,02:00,11.666,R,ugm-3 (Ref.eq),6.79831,R,ugm-3,22.73453,R,ugm-3,33.15846,R,ugm-3
05-01-2018,03:00,10.833,R,ugm-3 (Ref.eq),6.03892,R,ugm-3,11.17597,R,ugm-3,20.43552,R,ugm-3
05-01-2018,04:00,10.000,R,ugm-3 (Ref.eq),1.55493,R,ugm-3,12.59059,R,ugm-3,14.97479,R,ugm-3
05-01-2018,05:00,13.333,R,ugm-3 (Ref.eq),10.52291,R,ugm-3,13.98356,R,ugm-3,30.11847,R,ugm-3
05-01-2018,06:00,10.833,R,ugm-3 (Ref.eq),53.30162,R,ugm-3,48.14731,R,ugm-3,129.87533,R,ugm-3
05-01-2018,07:00,16.666,R,ugm-3 (Ref.eq),179.79354,R,ugm-3,80.61906,R,ugm-3,356.29864,R,ugm-3
05-01-2018,08:00,24.999,R,ugm-3 (Ref.eq),305.96000,R,ugm-3,108.12909,R,ugm-3,577.26121,R,ugm-3
05-01-2018,09:00,30.832,R,ugm-3 (Ref.eq),539.95919,R,ugm-3,169.75533,R,ugm-3,997.68121,R,ugm-3
05-01-2018,10:00,36.665,R,ugm-3 (Ref.eq),558.25676,R,ugm-3,169.05940,R,ugm-3,1025.04117,R,ugm-3
05-01-2018,11:00,42.498,R,ugm-3 (Ref.eq),519.09417,R,ugm-3,171.91093,R,ugm-3,967.84423,R,ugm-3
05-01-2018,12:00,36.665,R,ugm-3 (Ref.eq),343.42301,R,ugm-3,142.61829,R,ugm-3,669.19290,R,ugm-3
05-01-2018,13:00,34.165,R,ugm-3 (Ref.eq),218.59452,R,ugm-3,135.74411,R,ugm-3,470.91769,R,ugm-3
05-01-2018,14:00,32.499,R,ugm-3 (Ref.eq),234.68625,R,ugm-3,132.74449,R,ugm-3,492.59173,R,ugm-3
05-01-2018,15:00,33.332,R,ugm-3 (Ref.eq),334.78048,R,ugm-3,148.83296,R,ugm-3,662.15588,R,ugm-3
05-01-2018,16:00,37.499,R,ugm-3 (Ref.eq),144.31939,R,ugm-3,96.61798,R,ugm-3,317.90463,R,ugm-3
05-01-2018,17:00,33.332,R,ugm-3 (Ref.eq),177.04528,R,ugm-3,112.24923,R,ugm-3,383.71488,R,ugm-3
05-01-2018,18:00,29.166,R,ugm-3 (Ref.eq),142.80062,R,ugm-3,98.04599,R,ugm-3,317.00389,R,ugm-3
05-01-2018,19:00,21.666,R,ugm-3 (Ref.eq),71.23758,R,ugm-3,86.28726,R,ugm-3,195.51669,R,ugm-3
05-01-2018,20:00,27.499,R,ugm-3 (Ref.eq),47.76896,R,ugm-3,68.22763,R,ugm-3,141.47235,R,ugm-3
05-01-2018,21:00,15.833,R,ugm-3 (Ref.eq),8.89566,R,ugm-3,30.10233,R,ugm-3,43.74215,R,ugm-3
05-01-2018,22:00,19.166,R,ugm-3 (Ref.eq),10.48675,R,ugm-3,26.08639,R,ugm-3,42.16585,R,ugm-3
05-01-2018,23:00,18.333,R,ugm-3 (Ref.eq),6.07508,R,ugm-3,35.55307,R,ugm-3,44.86807,R,ugm-3
05-01-2018,24:00,5.833,R,ugm-3 (Ref.eq),5.56883,R,ugm-3,25.85823,R,ugm-3,34.39698,R,ugm-3
06-01-2018,01:00,7.500,R,ugm-3 (Ref.eq),10.31686,R,ugm-3,32.50487,R,ugm-3,48.32383,R,ugm-3
06-01-2018,02:00,7.500,R,ugm-3 (Ref.eq),8.05100,R,ugm-3,21.42195,R,ugm-3,33.76665,R,ugm-3
06-01-2018,03:00,5.833,R,ugm-3 (Ref.eq),1.66323,R,ugm-3,13.20752,R,ugm-3,15.75777,R,ugm-3
06-01-2018,04:00,9.166,R,ugm-3 (Ref.eq),0.75930,R,ugm-3,12.11730,R,ugm-3,13.28155,R,ugm-3
06-01-2018,05:00,9.166,R,ugm-3 (Ref.eq),0.75930,R,ugm-3,12.56753,R,ugm-3,13.73177,R,ugm-3
06-01-2018,06:00,4.167,R,ugm-3 (Ref.eq),1.44629,R,ugm-3,13.48388,R,ugm-3,15.70149,R,ugm-3
06-01-2018,07:00,2.500,R,ugm-3 (Ref.eq),1.51860,R,ugm-3,20.35144,R,ugm-3,22.67993,R,ugm-3
06-01-2018,08:00,5.833,R,ugm-3 (Ref.eq),3.14568,R,ugm-3,18.86963,R,ugm-3,23.69293,R,ugm-3
06-01-2018,09:00,7.500,R,ugm-3 (Ref.eq),10.41328,R,ugm-3,29.28052,R,ugm-3,45.24731,R,ugm-3
06-01-2018,10:00,9.166,R,ugm-3 (Ref.eq),6.61677,R,ugm-3,24.63408,R,ugm-3,34.77965,R,ugm-3
06-01-2018,11:00,10.833,R,ugm-3 (Ref.eq),4.41118,R,ugm-3,20.81239,R,ugm-3,27.57610,R,ugm-3
06-01-2018,12:00,18.333,R,ugm-3 (Ref.eq),4.84507,R,ugm-3,18.06483,R,ugm-3,25.49382,R,ugm-3
06-01-2018,13:00,21.666,R,ugm-3 (Ref.eq),4.84507,R,ugm-3,17.72716,R,ugm-3,25.15616,R,ugm-3
06-01-2018,14:00,18.333,R,ugm-3 (Ref.eq),5.56821,R,ugm-3,23.82191,R,ugm-3,32.35971,R,ugm-3
06-01-2018,15:00,16.666,R,ugm-3 (Ref.eq),6.25520,R,ugm-3,23.72526,R,ugm-3,33.31643,R,ugm-3
06-01-2018,16:00,16.666,R,ugm-3 (Ref.eq),5.92978,R,ugm-3,25.85628,R,ugm-3,34.94848,R,ugm-3
06-01-2018,17:00,18.333,R,ugm-3 (Ref.eq),6.50830,R,ugm-3,35.38062,R,ugm-3,45.35987,R,ugm-3
06-01-2018,18:00,20.833,R,ugm-3 (Ref.eq),15.94533,R,ugm-3,44.43481,R,ugm-3,68.88397,R,ugm-3
06-01-2018,19:00,19.166,R,ugm-3 (Ref.eq),6.54445,R,ugm-3,37.18235,R,ugm-3,47.21703,R,ugm-3
06-01-2018,20:00,28.332,R,ugm-3 (Ref.eq),22.95982,R,ugm-3,63.61916,R,ugm-3,98.82373,R,ugm-3
06-01-2018,21:00,19.999,R,ugm-3 (Ref.eq),9.32856,R,ugm-3,35.22083,R,ugm-3,49.52442,R,ugm-3
06-01-2018,22:00,30.832,R,ugm-3 (Ref.eq),53.72960,R,ugm-3,80.37102,R,ugm-3,162.75526,R,ugm-3
06-01-2018,23:00,24.166,R,ugm-3 (Ref.eq),28.81729,R,ugm-3,60.26561,R,ugm-3,104.45151,R,ugm-3
06-01-2018,24:00,27.499,R,ugm-3 (Ref.eq),124.85082,R,ugm-3,88.77167,R,ugm-3,280.20693,R,ugm-3
07-01-2018,01:00,22.499,R,ugm-3 (Ref.eq),140.51542,R,ugm-3,87.82120,R,ugm-3,303.27517,R,ugm-3
07-01-2018,02:00,15.833,R,ugm-3 (Ref.eq),98.40900,R,ugm-3,72.12020,R,ugm-3,223.01190,R,ugm-3
07-01-2018,03:00,21.666,R,ugm-3 (Ref.eq),87.96073,R,ugm-3,59.72971,R,ugm-3,194.60095,R,ugm-3
07-01-2018,04:00,21.666,R,ugm-3 (Ref.eq),86.11691,R,ugm-3,49.44844,R,ugm-3,181.49253,R,ugm-3
07-01-2018,05:00,29.999,R,ugm-3 (Ref.eq),101.19280,R,ugm-3,42.25379,R,ugm-3,197.41391,R,ugm-3
07-01-2018,06:00,24.999,R,ugm-3 (Ref.eq),125.30698,R,ugm-3,42.74793,R,ugm-3,234.88261,R,ugm-3
07-01-2018,07:00,19.999,R,ugm-3 (Ref.eq),99.09591,R,ugm-3,38.09900,R,ugm-3,190.04394,R,ugm-3
07-01-2018,08:00,20.833,R,ugm-3 (Ref.eq),127.29540,R,ugm-3,43.52468,R,ugm-3,238.70824,R,ugm-3
07-01-2018,09:00,19.999,R,ugm-3 (Ref.eq),149.89115,R,ugm-3,56.81128,R,ugm-3,286.64117,R,ugm-3
07-01-2018,10:00,23.332,R,ugm-3 (Ref.eq),258.56766,R,ugm-3,73.58164,R,ugm-3,470.04651,R,ugm-3
07-01-2018,11:00,31.665,R,ugm-3 (Ref.eq),286.36946,R,ugm-3,96.71992,R,ugm-3,535.81365,R,ugm-3
07-01-2018,12:00,34.999,R,ugm-3 (Ref.eq),279.28344,R,ugm-3,116.86780,R,ugm-3,545.09643,R,ugm-3
07-01-2018,13:00,22.499,R,ugm-3 (Ref.eq),148.26426,R,ugm-3,111.17690,R,ugm-3,338.51225,R,ugm-3
07-01-2018,14:00,9.166,R,ugm-3 (Ref.eq),87.70765,R,ugm-3,76.32043,R,ugm-3,210.80363,R,ugm-3
07-01-2018,15:00,22.499,R,ugm-3 (Ref.eq),169.05234,R,ugm-3,110.97627,R,ugm-3,370.18624,R,ugm-3
07-01-2018,16:00,22.499,R,ugm-3 (Ref.eq),219.99220,R,ugm-3,136.16167,R,ugm-3,473.47833,R,ugm-3
07-01-2018,17:00,45.832,R,ugm-3 (Ref.eq),502.71019,R,ugm-3,221.99646,R,ugm-3,992.80800,R,ugm-3
07-01-2018,18:00,43.332,R,ugm-3 (Ref.eq),444.17816,R,ugm-3,197.59418,R,ugm-3,878.65787,R,ugm-3
07-01-2018,19:00,49.998,R,ugm-3 (Ref.eq),417.67787,R,ugm-3,179.32390,R,ugm-3,819.75437,R,ugm-3
07-01-2018,20:00,27.499,R,ugm-3 (Ref.eq),193.09422,R,ugm-3,110.68112,R,ugm-3,406.75479,R,ugm-3
07-01-2018,21:00,29.999,R,ugm-3 (Ref.eq),239.76799,R,ugm-3,131.04337,R,ugm-3,498.68250,R,ugm-3
07-01-2018,22:00,24.166,R,ugm-3 (Ref.eq),215.11152,R,ugm-3,125.30474,R,ugm-3,455.13780,R,ugm-3
07-01-2018,23:00,19.166,R,ugm-3 (Ref.eq),134.45374,R,ugm-3,93.64633,R,ugm-3,299.80585,R,ugm-3
07-01-2018,24:00,17.499,R,ugm-3 (Ref.eq),95.01060,R,ugm-3,67.42937,R,ugm-3,213.11026,R,ugm-3
08-01-2018,01:00,15.833,R,ugm-3 (Ref.eq),41.98126,R,ugm-3,59.35953,R,ugm-3,123.72990,R,ugm-3
08-01-2018,02:00,7.500,R,ugm-3 (Ref.eq),38.82423,R,ugm-3,40.52284,R,ugm-3,100.05250,R,ugm-3
08-01-2018,03:00,10.000,R,ugm-3 (Ref.eq),4.15716,R,ugm-3,10.10436,R,ugm-3,16.47857,R,ugm-3
08-01-2018,04:00,11.666,R,ugm-3 (Ref.eq),4.04871,R,ugm-3,14.03878,R,ugm-3,20.24671,R,ugm-3
08-01-2018,05:00,10.000,R,ugm-3 (Ref.eq),14.78502,R,ugm-3,33.06465,R,ugm-3,55.73470,R,ugm-3
08-01-2018,06:00,14.166,R,ugm-3 (Ref.eq),40.45094,R,ugm-3,57.48792,R,ugm-3,119.51183,R,ugm-3
08-01-2018,07:00,9.166,R,ugm-3 (Ref.eq),56.50118,R,ugm-3,78.48924,R,ugm-3,165.12317,R,ugm-3
08-01-2018,08:00,14.166,R,ugm-3 (Ref.eq),96.73523,R,ugm-3,111.00134,R,ugm-3,259.32662,R,ugm-3
08-01-2018,09:00,23.332,R,ugm-3 (Ref.eq),243.35634,R,ugm-3,123.52188,R,ugm-3,496.66306,R,ugm-3
08-01-2018,10:00,17.499,R,ugm-3 (Ref.eq),137.65611,R,ugm-3,97.63634,R,ugm-3,308.70609,R,ugm-3
08-01-2018,11:00,18.333,R,ugm-3 (Ref.eq),68.82806,R,ugm-3,68.30563,R,ugm-3,173.84051,R,ugm-3
08-01-2018,12:00,19.999,R,ugm-3 (Ref.eq),56.10354,R,ugm-3,64.92625,R,ugm-3,150.95048,R,ugm-3
08-01-2018,13:00,14.166,R,ugm-3 (Ref.eq),41.35467,R,ugm-3,39.84861,R,ugm-3,103.25822,R,ugm-3
08-01-2018,14:00,19.166,R,ugm-3 (Ref.eq),43.41518,R,ugm-3,51.19936,R,ugm-3,117.76837,R,ugm-3
08-01-2018,15:00,19.999,R,ugm-3 (Ref.eq),30.83526,R,ugm-3,47.26082,R,ugm-3,94.54089,R,ugm-3
08-01-2018,16:00,22.499,R,ugm-3 (Ref.eq),32.57042,R,ugm-3,50.39309,R,ugm-3,100.33370,R,ugm-3
08-01-2018,17:00,22.499,R,ugm-3 (Ref.eq),36.32994,R,ugm-3,54.24576,R,ugm-3,109.95089,R,ugm-3
08-01-2018,18:00,22.499,R,ugm-3 (Ref.eq),31.73899,R,ugm-3,50.43063,R,ugm-3,99.09640,R,ugm-3
08-01-2018,19:00,26.666,R,ugm-3 (Ref.eq),30.69066,R,ugm-3,44.72673,R,ugm-3,91.78509,R,ugm-3
08-01-2018,20:00,34.999,R,ugm-3 (Ref.eq),20.24355,R,ugm-3,37.51794,R,ugm-3,68.55761,R,ugm-3
08-01-2018,21:00,34.165,R,ugm-3 (Ref.eq),16.88167,R,ugm-3,29.28742,R,ugm-3,55.17229,R,ugm-3
08-01-2018,22:00,25.832,R,ugm-3 (Ref.eq),9.32649,R,ugm-3,22.03118,R,ugm-3,36.33160,R,ugm-3
08-01-2018,23:00,19.999,R,ugm-3 (Ref.eq),7.59133,R,ugm-3,18.28026,R,ugm-3,29.92014,R,ugm-3
08-01-2018,24:00,14.999,R,ugm-3 (Ref.eq),7.37443,R,ugm-3,13.77612,R,ugm-3,25.08342,R,ugm-3
09-01-2018,01:00,18.333,R,ugm-3 (Ref.eq),7.37362,R,ugm-3,15.45582,R,ugm-3,26.76187,R,ugm-3
09-01-2018,02:00,19.166,R,ugm-3 (Ref.eq),3.10849,R,ugm-3,10.30133,R,ugm-3,15.06761,R,ugm-3
09-01-2018,03:00,15.833,R,ugm-3 (Ref.eq),3.03620,R,ugm-3,9.62506,R,ugm-3,14.28049,R,ugm-3
09-01-2018,04:00,19.999,R,ugm-3 (Ref.eq),3.14463,R,ugm-3,11.25791,R,ugm-3,16.07961,R,ugm-3
09-01-2018,05:00,17.499,R,ugm-3 (Ref.eq),4.98804,R,ugm-3,13.99742,R,ugm-3,21.64563,R,ugm-3
09-01-2018,06:00,17.499,R,ugm-3 (Ref.eq),10.69897,R,ugm-3,16.71014,R,ugm-3,33.11500,R,ugm-3
09-01-2018,07:00,19.999,R,ugm-3 (Ref.eq),23.85582,R,ugm-3,29.70782,R,ugm-3,66.28623,R,ugm-3
09-01-2018,08:00,29.166,R,ugm-3 (Ref.eq),59.82028,R,ugm-3,39.83731,R,ugm-3,131.56046,R,ugm-3
09-01-2018,09:00,24.999,R,ugm-3 (Ref.eq),48.97672,R,ugm-3,42.80182,R,ugm-3,117.89841,R,ugm-3
09-01-2018,10:00,25.832,R,ugm-3 (Ref.eq),47.82008,R,ugm-3,47.27399,R,ugm-3,120.59709,R,ugm-3
09-01-2018,11:00,26.666,R,ugm-3 (Ref.eq),45.14533,R,ugm-3,37.82561,R,ugm-3,107.04748,R,ugm-3
09-01-2018,12:00,19.999,R,ugm-3 (Ref.eq),52.91655,R,ugm-3,45.30665,R,ugm-3,126.44422,R,ugm-3
09-01-2018,13:00,21.666,R,ugm-3 (Ref.eq),56.82023,R,ugm-3,42.86310,R,ugm-3,129.98623,R,ugm-3
09-01-2018,14:00,21.666,R,ugm-3 (Ref.eq),45.68751,R,ugm-3,49.08210,R,ugm-3,119.13530,R,ugm-3
09-01-2018,15:00,21.666,R,ugm-3 (Ref.eq),73.15785,R,ugm-3,57.61790,R,ugm-3,169.79170,R,ugm-3
09-01-2018,16:00,23.332,R,ugm-3 (Ref.eq),50.74784,R,ugm-3,42.72860,R,ugm-3,120.54086,R,ugm-3
09-01-2018,17:00,19.166,R,ugm-3 (Ref.eq),26.85587,R,ugm-3,32.86650,R,ugm-3,74.04492,R,ugm-3
09-01-2018,18:00,19.999,R,ugm-3 (Ref.eq),37.41026,R,ugm-3,37.82295,R,ugm-3,95.18455,R,ugm-3
09-01-2018,19:00,26.666,R,ugm-3 (Ref.eq),39.72355,R,ugm-3,39.89819,R,ugm-3,100.80679,R,ugm-3
09-01-2018,20:00,28.332,R,ugm-3 (Ref.eq),31.77162,R,ugm-3,41.24007,R,ugm-3,89.95587,R,ugm-3
09-01-2018,21:00,18.333,R,ugm-3 (Ref.eq),20.60275,R,ugm-3,26.88087,R,ugm-3,58.47131,R,ugm-3
09-01-2018,22:00,9.166,R,ugm-3 (Ref.eq),17.20511,R,ugm-3,18.87825,R,ugm-3,45.25905,R,ugm-3
09-01-2018,23:00,7.500,R,ugm-3 (Ref.eq),21.47024,R,ugm-3,38.48190,R,ugm-3,71.40247,R,ugm-3
09-01-2018,24:00,15.833,R,ugm-3 (Ref.eq),17.38583,R,ugm-3,33.10653,R,ugm-3,59.76443,R,ugm-3
10-01-2018,01:00,6.666,R,ugm-3 (Ref.eq),10.60141,R,ugm-3,19.11576,R,ugm-3,35.37103,R,ugm-3
10-01-2018,02:00,6.666,R,ugm-3 (Ref.eq),15.07087,R,ugm-3,22.75410,R,ugm-3,45.86244,R,ugm-3
10-01-2018,03:00,6.666,R,ugm-3 (Ref.eq),12.03501,R,ugm-3,19.37185,R,ugm-3,37.82527,R,ugm-3
10-01-2018,04:00,5.833,R,ugm-3 (Ref.eq),10.58936,R,ugm-3,22.20672,R,ugm-3,38.44352,R,ugm-3
10-01-2018,05:00,5.000,R,ugm-3 (Ref.eq),16.48038,R,ugm-3,32.56433,R,ugm-3,57.83389,R,ugm-3
10-01-2018,06:00,5.833,R,ugm-3 (Ref.eq),36.68329,R,ugm-3,39.74946,R,ugm-3,95.99639,R,ugm-3
10-01-2018,07:00,8.333,R,ugm-3 (Ref.eq),57.50061,R,ugm-3,56.27784,R,ugm-3,144.44421,R,ugm-3
10-01-2018,08:00,10.000,R,ugm-3 (Ref.eq),121.57891,R,ugm-3,92.01608,R,ugm-3,278.43448,R,ugm-3
10-01-2018,09:00,14.999,R,ugm-3 (Ref.eq),146.73317,R,ugm-3,112.51714,R,ugm-3,337.50486,R,ugm-3
10-01-2018,10:00,24.999,R,ugm-3 (Ref.eq),285.76826,R,ugm-3,126.95905,R,ugm-3,565.13094,R,ugm-3
10-01-2018,11:00,15.833,R,ugm-3 (Ref.eq),203.90851,R,ugm-3,117.47365,R,ugm-3,430.12900,R,ugm-3
10-01-2018,12:00,19.999,R,ugm-3 (Ref.eq),255.69881,R,ugm-3,127.03385,R,ugm-3,519.09989,R,ugm-3
10-01-2018,13:00,24.166,R,ugm-3 (Ref.eq),202.53514,R,ugm-3,106.09050,R,ugm-3,416.64005,R,ugm-3
10-01-2018,14:00,23.332,R,ugm-3 (Ref.eq),210.05250,R,ugm-3,124.63316,R,ugm-3,446.70917,R,ugm-3
10-01-2018,15:00,22.499,R,ugm-3 (Ref.eq),142.86606,R,ugm-3,84.94905,R,ugm-3,304.00729,R,ugm-3
10-01-2018,16:00,26.666,R,ugm-3 (Ref.eq),157.28639,R,ugm-3,90.20952,R,ugm-3,331.37862,R,ugm-3
10-01-2018,17:00,19.166,R,ugm-3 (Ref.eq),127.57835,R,ugm-3,91.30388,R,ugm-3,286.92128,R,ugm-3
10-01-2018,18:00,17.499,R,ugm-3 (Ref.eq),104.15886,R,ugm-3,83.37415,R,ugm-3,243.08218,R,ugm-3
10-01-2018,19:00,18.333,R,ugm-3 (Ref.eq),95.05129,R,ugm-3,94.41630,R,ugm-3,240.15958,R,ugm-3
10-01-2018,20:00,31.665,R,ugm-3 (Ref.eq),124.28950,R,ugm-3,92.46863,R,ugm-3,283.04321,R,ugm-3
10-01-2018,21:00,53.331,R,ugm-3 (Ref.eq),166.93608,R,ugm-3,93.11778,R,ugm-3,349.08287,R,ugm-3
10-01-2018,22:00,45.832,R,ugm-3 (Ref.eq),186.27161,R,ugm-3,96.06869,R,ugm-3,381.68118,R,ugm-3
10-01-2018,23:00,34.165,R,ugm-3 (Ref.eq),167.62277,R,ugm-3,76.15916,R,ugm-3,333.17715,R,ugm-3
10-01-2018,24:00,34.999,R,ugm-3 (Ref.eq),80.84781,R,ugm-3,62.23885,R,ugm-3,186.20376,R,ugm-3
11-01-2018,01:00,26.666,R,ugm-3 (Ref.eq),55.55487,R,ugm-3,50.71111,R,ugm-3,135.89406,R,ugm-3
11-01-2018,02:00,18.333,R,ugm-3 (Ref.eq),37.43811,R,ugm-3,39.90904,R,ugm-3,97.31333,R,ugm-3
11-01-2018,03:00,12.500,R,ugm-3 (Ref.eq),38.37767,R,ugm-3,38.46839,R,ugm-3,97.31333,R,ugm-3
11-01-2018,04:00,13.333,R,ugm-3 (Ref.eq),33.13778,R,ugm-3,38.18732,R,ugm-3,88.99788,R,ugm-3
11-01-2018,05:00,15.833,R,ugm-3 (Ref.eq),42.31662,R,ugm-3,41.36225,R,ugm-3,106.24683,R,ugm-3
11-01-2018,06:00,14.166,R,ugm-3 (Ref.eq),59.84315,R,ugm-3,41.79478,R,ugm-3,133.55300,R,ugm-3
11-01-2018,07:00,17.499,R,ugm-3 (Ref.eq),101.22021,R,ugm-3,68.75336,R,ugm-3,223.95551,R,ugm-3
11-01-2018,08:00,20.833,R,ugm-3 (Ref.eq),231.20560,R,ugm-3,115.76256,R,ugm-3,470.27286,R,ugm-3
11-01-2018,09:00,33.332,R,ugm-3 (Ref.eq),434.80239,R,ugm-3,136.20348,R,ugm-3,802.89119,R,ugm-3
11-01-2018,10:00,39.165,R,ugm-3 (Ref.eq),373.80286,R,ugm-3,139.83796,R,ugm-3,712.99434,R,ugm-3
11-01-2018,11:00,30.832,R,ugm-3 (Ref.eq),235.65047,R,ugm-3,104.73327,R,ugm-3,466.05895,R,ugm-3
11-01-2018,12:00,30.832,R,ugm-3 (Ref.eq),237.74642,R,ugm-3,93.03551,R,ugm-3,457.57494,R,ugm-3
11-01-2018,13:00,37.499,R,ugm-3 (Ref.eq),286.56774,R,ugm-3,107.06271,R,ugm-3,546.46044,R,ugm-3
11-01-2018,14:00,34.165,R,ugm-3 (Ref.eq),275.18453,R,ugm-3,111.08838,R,ugm-3,533.03210,R,ugm-3
11-01-2018,15:00,37.499,R,ugm-3 (Ref.eq),258.01937,R,ugm-3,124.54142,R,ugm-3,520.16561,R,ugm-3
11-01-2018,16:00,29.166,R,ugm-3 (Ref.eq),305.57589,R,ugm-3,126.40540,R,ugm-3,594.94855,R,ugm-3